This is the latest recevied weather packets stored in our database for station/object CE3MXM-13. If no packets are shown the sender has not sent any weather packets the latest 10 day(s).
| Time | Temp. | Humidity | Pressure | Rain* | Wind** | Luminosity | Snow |
|---|---|---|---|---|---|---|---|
| 1778074530 | 13.89° C | 97% | 1012.1 hPa | - | - | - | - |
| 1778074230 | 13.89° C | 98% | 1012.5 hPa | - | - | - | - |
| 1778073930 | 14.44° C | 99% | 1012.3 hPa | - | - | - | - |
| 1778073630 | 13.33° C | 99% | 1012.3 hPa | - | - | - | - |
| 1778073330 | 12.78° C | 99% | 1012.2 hPa | - | - | - | - |
| 1778073030 | 12.22° C | 99% | 1011.9 hPa | - | - | - | - |
| 1778072730 | 11.67° C | 99% | 1012 hPa | - | - | - | - |
| 1778072430 | 11.67° C | 99% | 1012.2 hPa | - | - | - | - |
| 1778072130 | 11.11° C | 99% | 1012.1 hPa | - | - | - | - |
| 1778071829 | 10° C | 99% | 1012.2 hPa | - | - | - | - |
| 1778071530 | 9.44° C | 99% | 1012.4 hPa | - | - | - | - |
| 1778071230 | 9.44° C | 98% | 1012.2 hPa | - | - | - | - |
| 1778070929 | 8.89° C | 98% | 1012.2 hPa | - | - | - | - |
| 1778070630 | 8.89° C | 98% | 1012 hPa | - | - | - | - |
| 1778070329 | 8.33° C | 98% | 1012.3 hPa | - | - | - | - |
| 1778070030 | 8.33° C | 98% | 1012.2 hPa | - | - | - | - |
| 1778069729 | 7.78° C | 98% | 1012.2 hPa | - | - | - | - |
| 1778069429 | 7.78° C | 98% | 1012.1 hPa | - | - | - | - |
| 1778069129 | 7.22° C | 98% | 1012.1 hPa | - | - | - | - |
| 1778068829 | 7.22° C | 98% | 1012.1 hPa | - | - | - | - |
| 1778068528 | 7.22° C | 98% | 1012.1 hPa | - | - | - | - |
| 1778068228 | 7.22° C | 98% | 1012 hPa | - | - | - | - |
| 1778067928 | 7.22° C | 98% | 1012 hPa | - | - | - | - |
| 1778067628 | 6.67° C | 98% | 1012.2 hPa | - | - | - | - |
| 1778067328 | 6.67° C | 98% | 1012.1 hPa | - | - | - | - |
* Rain since midnight (hover to see other rain measurements)
** Current wind speed in m/s (hover to see current wind gust speed)